Home   Weather   Hebron   Past weeks
Flag for Palestinian Territories

Past Weather in Hebron, West Bank, Palestinian Territories — Yesterday and Last 2 Weeks

Now
91 °F

Sunny.


Feels Like: 89 °F
Forecast: 66 / 57 °F
Wind: 6 mph from West

Location: Ben Gurion International Airport

Current Time: Nov 14, 2019 at 1:35:56 pm

Latest Report: Nov 14, 2019 at 12:50 pm


Visibility: 10 mi

Pressure: 29.83 "Hg (27.00 "Hg at 894m altitude)

Humidity: 28%

Dew Point: 54 °F

Location of HebronLocation

Past Weather in Hebron — Graph

°F

Hebron Temperature Yesterday

Maximum temperature yesterday: 90 °F (at 12:50 pm)
Minimum temperature yesterday: 73 °F (at 11:20 pm)
Average temperature yesterday: 81 °F

High & Low Weather Summary for the Past Weeks

 TemperatureHumidityPressure
High91 °F (Nov 11, 2:50 pm)88% (Nov 1, 5:20 am)30.09 "Hg (Nov 1, 5:20 am)
Low59 °F (Nov 4, 4:50 am)12% (Nov 11, 1:50 pm)29.80 "Hg (Nov 13, 12:20 pm)
Average75 °F53%29.94 "Hg
* Reported Oct 30 12:20 pm — Nov 14 12:20 pm, Hebron. Weather by CustomWeather, © 2019

Note: Actual official high and low records may vary slightly from our data, if they occured in-between our weather recording intervals... More about our weather records

Advertising

Hebron Weather History for the Previous 24 Hours

Scroll right to see more
 ConditionsComfort  
Time TempWeatherWind HumidityBarometerVisibility
12:20 pm
Thu, Nov 14
91 °FSunny.2 mph28%29.83 "Hg10 mi
11:50 am90 °FSunny.2 mph31%29.83 "Hg10 mi
11:20 am90 °FSunny.3 mph31%29.86 "Hg10 mi
10:50 am88 °FSunny.5 mph33%29.86 "Hg10 mi
10:20 am88 °FSunny.2 mph35%29.86 "Hg10 mi
9:50 am86 °FSunny.2 mph38%29.89 "Hg10 mi
9:20 am82 °FSunny.6 mph42%29.89 "Hg10 mi
8:50 am79 °FSunny.5 mph48%29.89 "Hg10 mi
8:20 am75 °FSunny.5 mph54%29.89 "Hg10 mi
7:50 am73 °FSunny.2 mph53%29.86 "Hg10 mi
7:20 am70 °FSunny.1 mph57%29.86 "Hg10 mi
6:50 am70 °FSunny.7 mph57%29.86 "Hg10 mi
6:20 am70 °FSunny.7 mph60%29.86 "Hg10 mi
5:50 am72 °FClear.3 mph57%29.86 "Hg10 mi
5:20 am68 °FClear.2 mph64%29.86 "Hg10 mi
4:50 am68 °FClear.2 mph60%29.83 "Hg10 mi
4:20 am70 °FClear.1 mph57%29.83 "Hg10 mi
3:50 am70 °FClear.1 mph57%29.83 "Hg10 mi
3:20 am72 °FClear.1 mph53%29.83 "Hg10 mi
2:50 am72 °FClear.2 mph57%29.83 "Hg10 mi
2:20 am72 °FClear.5 mph57%29.83 "Hg10 mi
1:50 am70 °FClear.3 mph57%29.86 "Hg10 mi
1:20 am75 °FPassing clouds.7 mph50%29.86 "HgN/A
12:50 am77 °FClear.6 mph44%29.86 "Hg10 mi
12:20 am73 °FClear.6 mph53%29.86 "Hg10 mi
11:50 pm
Wed, Nov 13
73 °FPassing clouds.5 mph53%29.86 "HgN/A
11:20 pm73 °FClear.7 mph53%29.86 "Hg10 mi
10:50 pm75 °FPassing clouds.10 mph50%29.86 "HgN/A
10:20 pm77 °FClear.9 mph47%29.86 "Hg10 mi
9:50 pm77 °FClear.12 mph44%29.86 "Hg10 mi
9:20 pm79 °FClear.13 mph45%29.86 "Hg10 mi
8:50 pm79 °FClear.8 mph45%29.86 "Hg10 mi
8:20 pm82 °FClear.5 mph40%29.86 "Hg10 mi
7:50 pm81 °FClear.3 mph42%29.86 "Hg10 mi
7:20 pm82 °FClear.5 mph40%29.83 "Hg10 mi
6:50 pm81 °FClear.3 mph42%29.83 "Hg10 mi
6:20 pm81 °FClear.5 mph42%29.83 "Hg10 mi
5:50 pm81 °FClear.6 mph42%29.83 "Hg10 mi
5:20 pm82 °FClear.6 mph40%29.83 "Hg10 mi
4:50 pm84 °FClear.6 mph37%29.80 "Hg10 mi
4:20 pm86 °FSunny.7 mph35%29.80 "Hg10 mi
3:50 pm86 °FSunny.8 mph35%29.80 "Hg10 mi
3:20 pm88 °FSunny.10 mph33%29.80 "Hg10 mi
2:50 pm88 °FSunny.7 mph33%29.80 "Hg10 mi
2:20 pm90 °FSunny.7 mph33%29.80 "Hg10 mi
1:50 pm90 °FSunny.13 mph29%29.80 "Hg10 mi
1:20 pm90 °FSunny.13 mph29%29.80 "Hg10 mi
Weather by CustomWeather, © 2019

See weather overview